Location: Goheenville
(40.9070°N, 79.3720°W)
Time: 18:17:57
(UTC-04:00)

Daily predictions for brighter satellites

Satellite Brightness Start Highest point End
(mag) Time Altitude Azimuth Time Altitude Azimuth Time Altitude Azimuth
Cosmos 1943 Rocket 2.8 19:29:30 10° NNW 19:35:02 64° WSW 19:40:35 10° S
Cosmos 1340 Rocket 2.9 19:31:11 10° N 19:35:17 87° ENE 19:39:22 10° S
ATLAS CENTAUR R/B 3.9 19:22:52 10° NW 19:39:34 72° NE 19:44:53 10° ESE
Cosmos 304 Rocket 3.8 19:37:38 10° S 19:42:19 59° ESE 19:47:04 10° NNE
COSMO-SKYMED 1 3.5 19:45:00 10° N 19:49:15 55° WNW 19:53:28 10° SSW
Meteor 1-24 Rocket 4.1 19:45:19 10° N 19:51:05 48° ENE 19:56:38 10° SSE
BREEZE M DEB (TANK) 4.1 19:42:02 10° W 19:51:14 43° NNW 19:54:22 10° NE
Thor Agena Rocket 3.5 19:48:00 10° NNE 19:53:14 67° ESE 19:58:22 10° S
Cosmos 1758 Rocket 4.1 19:50:02 10° NNW 19:54:29 65° W 19:58:56 10° S
ISS -2.6 19:53:00 10° S 19:55:41 24° SE 19:57:34 15° E
Cosmos 2084 4.3 19:52:01 10° SW 19:55:58 48° NW 19:59:45 10° NNE
Cosmos 1726 Rocket 4.2 19:53:32 10° SSW 19:57:51 61° W 20:02:09 10° N
USA 234 4.0 19:52:53 10° SSE 19:59:14 52° SW 20:05:37 10° NW
ALOS 2.4 19:57:11 10° S 20:01:51 78° WSW 20:06:33 10° NNW
Cosmos 2181 Rocket 4.3 19:57:34 10° NNW 20:03:44 70° W 20:09:47 10° S
BREEZE M DEB (TANK) 3.3 19:55:40 10° WNW 20:03:58 70° NNE 20:06:19 18° ESE
SJ 16-02 2.4 20:03:12 10° N 20:06:56 27° ENE 20:09:11 18° ESE
Cosmos 1656 Rocket 3.8 20:01:39 10° NNW 20:07:19 80° WSW 20:12:51 10° SSE
SJ-6B 2.9 20:04:00 10° SSE 20:07:54 55° ENE 20:11:45 10° N
FENGYUN 3A 4.0 20:05:12 10° S 20:10:32 71° WSW 20:15:55 10° NNW
Cosmos 1953 3.6 20:11:47 20° E 20:12:23 20° E 20:15:25 10° NE
H-2A R/B 2.6 20:09:21 10° SSE 20:13:02 73° ENE 20:16:48 10° N
Cosmos 2154 Rocket 4.4 20:08:12 10° SSE 20:13:55 40° E 20:19:43 10° NNE
Cosmos 2074 Rocket 3.9 20:08:33 10° S 20:14:45 80° E 20:20:58 10° N
Cosmos 372 Rocket 4.2 20:11:31 10° N 20:16:37 49° ENE 20:20:59 14° SE
Cosmos 1125 Rocket 3.6 20:11:37 10° N 20:16:51 56° ENE 20:21:54 11° SE
FREGAT/IRIS 3.1 20:16:29 10° S 20:19:29 63° W 20:22:29 10° NNW
Cosmos 2228 3.9 20:15:41 10° SSW 20:19:56 52° W 20:24:11 10° N
Cosmos 1356 4.0 20:19:15 10° N 20:22:32 37° ENE 20:23:36 29° ESE
Cosmos 1356 Rocket 3.8 20:18:21 10° NNW 20:22:39 70° W 20:26:56 10° S
Geosat 4.2 20:18:32 10° SSE 20:23:33 72° WSW 20:28:35 10° NNW
Envisat 3.7 20:21:01 20° ESE 20:23:46 34° ENE 20:28:20 10° N
Cosmos 1544 2.9 20:21:53 10° S 20:25:29 80° E 20:29:07 10° N
Cosmos 2341 Rocket 4.5 20:22:03 10° SSE 20:27:36 36° E 20:33:11 10° NNE
Cosmos 1900 4.4 20:27:06 10° SSW 20:32:04 57° ESE 20:37:08 10° NE
ATLAS 2AS CENTAUR R/B 3.9 20:25:33 10° NNW 20:32:37 32° NE 20:36:22 22° E
COSMOS 2406 3.4 20:27:38 10° SSW 20:33:20 76° WNW 20:39:06 10° NNE
Meteor 1-22 Rocket 4.4 20:28:17 10° SSW 20:33:58 76° W 20:39:29 10° N
Cosmos 1766 3.8 20:33:21 10° SSW 20:37:13 60° W 20:41:06 10° N
Cosmos 1812 Rocket 3.5 20:33:43 10° S 20:38:09 75° E 20:42:37 10° NNE
Meteor 2-8 Rocket 4.4 20:33:04 10° N 20:39:14 87° E 20:45:19 10° S
In-Cosmos 22 4.4 20:34:31 10° NNW 20:40:15 80° W 20:46:01 10° S
Resurs 01 Rocket 1.6 20:38:07 26° SE 20:40:27 59° ENE 20:44:49 10° N
NOSS 3-1 (A) 4.4 20:34:38 10° NW 20:42:18 70° WSW 20:50:43 10° SSE
Cosmos 1674 3.2 20:38:47 10° N 20:41:51 37° ENE 20:41:51 37° ENE
GP-B 3.0 20:38:09 10° N 20:42:34 62° E 20:46:08 15° S
Nadezhda 3 Rocket 3.9 20:38:08 10° N 20:44:25 66° E 20:50:14 12° SSE
MOS 1-B Rocket 3.9 20:40:08 17° SSE 20:44:47 60° ENE 20:50:20 10° N
Cosmos 2369 4.4 20:40:22 10° N 20:45:31 34° ENE 20:46:39 32° E
SL-27 R/B 2.4 20:47:14 10° SSW 20:50:50 88° E 20:54:30 10° NNE
Meteor 2-19 Rocket 4.4 20:45:17 10° S 20:51:20 90° WNW 20:57:26 10° N
Cosmos 540 Rocket 4.1 20:47:52 10° SSW 20:52:52 57° WNW 20:57:55 10° N
Meteor 1-21 Rocket 4.2 20:49:13 10° N 20:54:53 60° ENE 20:57:05 36° SE
Cosmos 2285 Rocket 4.2 20:49:00 10° S 20:55:01 45° ESE 21:01:05 10° NNE
Cosmos 1758 3.2 20:53:03 10° S 20:57:04 86° E 21:01:05 10° N
Elektron 1 3.9 20:54:44 10° NW 20:57:32 68° NW 20:57:32 68° NW
Cosmos 1295 Rocket 4.4 20:58:02 10° S 21:04:01 62° E 21:10:01 10° NNE
Cosmos 1809 Rocket 4.5 21:03:38 35° SSE 21:05:55 53° E 21:11:50 10° NNE
Okean 3 Rocket 3.6 21:03:58 10° N 21:08:04 63° NE 21:08:04 63° NE
Cosmos 1805 4.4 21:05:22 10° SSW 21:09:05 42° WNW 21:12:49 10° N
Cosmos 1939 Rocket 3.7 21:13:42 40° N 21:13:42 40° N 21:16:21 10° N
SL-8 Rocket 4.0 21:14:55 54° ESE 21:15:19 55° E 21:21:19 10° NNE
Cosmos 292 Rocket 4.0 21:11:51 10° SSW 21:16:41 72° WNW 21:21:34 10° NNE
Cosmos 2278 3.7 21:14:16 10° NNW 21:19:54 62° ENE 21:20:05 61° ENE
Meteor 2-15 4.3 21:16:22 10° N 21:22:24 64° E 21:22:46 62° E
Spot 2 Rocket 4.1 21:28:02 32° SSW 21:30:06 52° W 21:35:03 10° NNW
ISS -1.3 21:28:55 10° W 21:30:17 21° W 21:30:17 21° W
Milstar 3 Cent rocket 3.9 21:28:55 10° SW 21:30:39 16° SSW 21:30:39 16° SSW
Meteor 2-21 Rocket 4.4 21:33:19 63° ENE 21:33:19 63° ENE 21:38:47 10° NNE
Cosmos 1656 3.8 21:30:45 10° NNW 21:35:48 63° NNE 21:35:48 63° NNE
Cosmos 1697 Rocket 3.3 21:34:12 10° NNW 21:38:32 44° NNE 21:38:32 44° NNE
Cosmos 1980 Rocket 3.5 21:36:31 10° N 21:39:52 27° NNE 21:39:52 27° NNE
SJ 16-02 3.2 21:41:47 10° NW 21:45:27 26° W 21:46:14 25° WSW
Cosmos 1953 4.3 21:47:22 23° WSW 21:48:38 27° WNW 21:52:08 10° NNW
ERS-1 Rocket 4.5 21:52:11 28° N 21:52:11 28° N 21:54:37 10° N
SL-16 R/B 4.4 22:05:30 10° N 22:07:07 15° NNE 22:07:07 15° NNE
FALCON 9 R/B 4.0 22:14:07 10° WSW 22:15:43 23° WSW 22:15:43 23° WSW
ATLAS 2AS CENTAUR R/B 3.1 22:16:26 10° NW 22:23:48 70° W 22:23:48 70° W
H-2A R/B 4.3 22:28:13 17° N 22:28:13 17° N 22:29:26 10° N
